Location: Banios
(43.0451°N, 0.2335°E)
Time: 19:43:00
(UTC+00:00)

Okean O Rocket - Pass Details

Date: 25 January 2021
Orbit: 622 x 645 km, 98.2° (Epoch: 02 March)

Event Time Altitude Azimuth Distance (km) Brightness Sun altitude
Rises 05:46:38 0° 25° (NNE) 2,922 5.2 -17.2°
Reaches altitude 10° 05:49:08 10° 37° (NE) 2,007 4.5 -16.7°
Maximum altitude 05:52:50 27° 95° (E) 1,216 3.9 -16.1°
Drops below altitude 10° 05:56:29 10° 154° (SSE) 1,987 4.7 -15.4°
Sets 05:58:57 0° 166° (SSE) 2,887 5.4 -15.0°
